Forside
METAR-TAF:

METAR-TAF

Lufthavne :

Aitkin Municipal Airport (Steve Kurtz Field)

Aitkin, Minnesota, USA

Breddekreds: 46-33N, længdekreds: 093-41W, højde: 367 m

Aktuelle vejr

Denne rapport blev lavet for 24 minutter siden, kl. 17:16 UTC
Vind 5 kt fra øst
Temperatur 19°C
Fugtighed 49%
Tryk 1020 hPa
Sigt: 16.1 km
skyfri

METAR: KAIT 061716Z AUTO 08005KT 10SM CLR 19/08 A3012 RMK AO2 LTG DSNT W

Tid: 12:40 (17:40 UTC)


TAF: fraværende

Vejrobservationer og prognoser fra mere end 4000 lufthavne (METAR og TAF).

De gule og røde prikker repræsenterer de meteorologiske stationer.

Flyt musen over at se navnet på stationen.

Så klik over at se vejr observationer og prognoser.

At skifte det kort: Klik på de grønne knapper med et sort kors for at zoome ind; på den grønne knap med en bindestreg for at zoome ud; eller på de grønne pile for tilstødende kort.


METAR-TAF: